Location: Härggis
(46.9540°N, 8.4897°E)
Time: 22:08:24
(UTC+00:00)

SL-16 R/B - Pass Details

Date: 01 October 2022
Orbit: 985 x 1007 km, 99.6° (Epoch: 05 December)

Event Time Altitude Azimuth Distance (km) Brightness Sun altitude
Exits shadow 01:30:33 24° 342° (NNW) 1,944 4.2 -37.4°
Drops below altitude 10° 01:32:48 10° 344° (NNW) 2,775 5.1 -37.1°
Sets 01:35:18 0° 345° (NNW) 3,731 5.9 -36.8°
